Hourly Data Report for August 13, 2009

All times are specified in Local Standard Time (LST). Add 1 hour to adjust for Daylight Saving Time where and when it is observed.

EMERSON AUT
MANITOBA

49°00'00.000" N
97°14'15.000" W
242.00 m
5020882
71560
WEX

Download Data

Hourly Data (August 2009)
Hourly Data Report for August 13, 2009
Temp Definition
°C
Dew Point Temp Definition
°C
Rel Hum Definition
%
Wind Dir Definition
10's deg

Wind Spd Definition
km/h
Visibility Definition
km
Stn Press Definition
kPa
Hmdx Definition


Wind Chill Definition


Weather Definition


TIME
00:00 20.6 17.4 82 3 7   98.13 26   LegendNANA
01:00 21.2 17.5 79 7 11   98.10 27   LegendNANA
02:00 21.0 19.3 90 13 11   98.01 28   LegendNANA
03:00 20.9 19.1 89 15 13   97.98 28   LegendNANA
04:00 20.4 19.0 92 27 17   98.22 27   LegendNANA
05:00 20.1 16.8 81 4 15   98.16 25   LegendNANA
06:00 19.7 16.6 82 2 13   98.31     LegendNANA
07:00 19.0 17.0 88 11 9   98.21     LegendNANA
08:00 21.3 18.3 83 11 13   98.14 28   LegendNANA
09:00 22.7 18.9 79 11 13   98.10 29   LegendNANA
10:00 22.1 17.7 76 6 19   98.23 28   LegendNANA
11:00 23.1 17.9 73 8 13   98.28 29   LegendNANA
12:00 25.1 17.6 63 7 17   98.27 31   LegendNANA
13:00 26.6 18.4 61 7 15   98.24 33   LegendNANA
14:00 27.7 17.2 53 7 13   98.22 33   LegendNANA
15:00 28.4 19.1 57 3 13   98.17 35   LegendNANA
16:00 26.7 20.6 69 2 15   98.14 35   LegendNANA
17:00 27.2 20.5 67 3 17   98.14 35   LegendNANA
18:00 26.3 21.2 74 2 13   98.13 35   LegendNANA
19:00 25.0 21.1 79 3 11   98.13 34   LegendNANA
20:00 23.4 21.1 87 3 9   98.15 32   LegendNANA
21:00 23.8 19.7 78 6 15   98.18 31   LegendNANA
22:00 22.9 19.3 80 9 11   98.15 30   LegendNANA
23:00 22.8 19.6 82 8 7   98.12 30   LegendNANA

Notes on Data Quality.

Legend

  • E = Estimated
  • M = Missing
  • NA = Not Available
  • ‡ = Partner data that is not subject to review by the National Climate Archives
Date modified: